Weather History for KTUL - January, 2013

Change the Weather History Date:

Friday, January 18, 2013

  Actual Average Record
Temperature  
Mean Temperature 44 °F 38 °F  
Max Temperature 59 °F 48 °F 72 °F (1951)
Min Temperature 29 °F 27 °F -14 °F (1930)
Degree Days  
Heating Degree Days 21 27  
Month to date heating degree days 490 501  
Since 1 July heating degree days 1742 1929  
Moisture  
Dew Point 29 °F    
Average Humidity 56    
Maximum Humidity 78    
Minimum Humidity 33    
Precipitation  
Precipitation 0.00 in 0.06 in 1.50 in (1898)
Month to date precipitation 0.62 0.94  
Year to date precipitation 0.62 0.94  
Sea Level Pressure  
Sea Level Pressure 30.34 in    
Wind  
Wind Speed 11 mph (South)    
Max Wind Speed 23 mph    
Max Gust Speed 30 mph    
Visibility 10 miles    
Events      
T = Trace of Precipitation, MM = Missing Value Source: NWS Daily Summary

Daily Weather History Graph

Daily Weather History Graph

Search for Another Location

Airport or City:

Trip Planner

Search our weather history database for the weather conditions in past years. The results will help you decide how hot, cold, wet, or windy it might be!

Date:

Astronomy

Jan. 18, 2013 Rise Set
Actual Time 7:32 AM CST 5:35 PM CST
Civil Twilight 7:04 AM CST 6:03 PM CST
Nautical Twilight 6:33 AM CST 6:35 PM CST
Astronomical Twilight 6:02 AM CST 7:05 PM CST
Moon 11:26 AM CST (1/18) 12:12 AM CST (1/18)
Length of Visible Light 10h 58m
Length of Day
10h 03m
Waxing Crescent, 47% of the Moon is Illuminated
Jan 18
Waxing Crescent
Jan 18
First Quarter
Jan 26
Full
Feb 3
Last Quarter
Feb 10
New

Hourly Weather History & Observations

Time (CST) Temp. Windchill Dew Point Humidity Pressure Visibility Wind Dir Wind Speed Gust Speed Precip Events Conditions
12:53 AM 35.1 °F 32.2 °F 27.0 °F 72% 30.49 in 10.0 mi South 3.5 mph - N/A   Clear
1:53 AM 32.0 °F - 26.1 °F 79% 30.50 in 10.0 mi Calm Calm - N/A   Clear
2:53 AM 33.1 °F - 26.1 °F 75% 30.49 in 10.0 mi Calm Calm - N/A   Clear
3:53 AM 30.0 °F 26.5 °F 24.1 °F 79% 30.48 in 10.0 mi South 3.5 mph - N/A   Clear
4:53 AM 32.0 °F 25.6 °F 26.1 °F 79% 30.46 in 10.0 mi SSE 6.9 mph - N/A   Clear
5:53 AM 32.0 °F 25.6 °F 26.1 °F 79% 30.44 in 10.0 mi SSE 6.9 mph - N/A   Clear
6:53 AM 33.1 °F 25.5 °F 26.1 °F 75% 30.43 in 10.0 mi SSE 9.2 mph - N/A   Clear
7:53 AM 33.1 °F 25.5 °F 26.1 °F 75% 30.43 in 10.0 mi SSE 9.2 mph - N/A   Clear
8:53 AM 39.0 °F 31.0 °F 28.0 °F 65% 30.43 in 10.0 mi South 13.8 mph - N/A   Clear
9:53 AM 44.1 °F 37.4 °F 30.0 °F 58% 30.44 in 10.0 mi South 13.8 mph - N/A   Clear
10:53 AM 48.9 °F - 31.1 °F 50% 30.41 in 10.0 mi South 18.4 mph 26.5 mph N/A   Clear
11:53 AM 51.1 °F - 30.9 °F 46% 30.38 in 10.0 mi South 19.6 mph - N/A   Clear
12:53 PM 55.0 °F - 28.9 °F 37% 30.33 in 10.0 mi South 20.7 mph 27.6 mph N/A   Clear
1:53 PM 57.0 °F - 28.9 °F 34% 30.30 in 10.0 mi SSW 12.7 mph 24.2 mph N/A   Clear
2:53 PM 57.9 °F - 28.0 °F 32% 30.26 in 10.0 mi SSW 19.6 mph 25.3 mph N/A   Clear
3:53 PM 57.9 °F - 28.9 °F 33% 30.24 in 10.0 mi SSW 18.4 mph 23.0 mph N/A   Clear
4:53 PM 57.0 °F - 28.9 °F 34% 30.22 in 10.0 mi South 18.4 mph - N/A   Clear
5:53 PM 54.0 °F - 30.0 °F 40% 30.22 in 10.0 mi South 16.1 mph - N/A   Clear
6:53 PM 52.0 °F - 30.0 °F 43% 30.22 in 10.0 mi South 17.3 mph - N/A   Clear
7:53 PM 51.1 °F - 30.9 °F 46% 30.21 in 10.0 mi South 13.8 mph - N/A   Clear
8:53 PM 50.0 °F - 32.0 °F 50% 30.21 in 10.0 mi South 11.5 mph 19.6 mph N/A   Clear
9:53 PM 46.9 °F - 32.0 °F 56% 30.22 in 10.0 mi SSE 5.8 mph - N/A   Clear
10:53 PM 45.0 °F 39.7 °F 32.0 °F 60% 30.19 in 10.0 mi SSE 10.4 mph - N/A   Clear
11:53 PM 46.9 °F - 33.1 °F 59% 30.17 in 10.0 mi South 13.8 mph - N/A   Clear